Voltar ao catálogo

FENGYUN 1C DEB

AtivoSSO
NORAD 30062·DEBRIS·🇨🇳 China

Lançado May 10, 1999 de Taiyuan Satellite Launch Center

Loading…

Próximas Passagens (próximas 24 horas)

TLE

AtualizadoSource: Space-Track

Época: Sep 14, 2026, 06:06 UTC

1 30062U 99025PP  26257.25478439  .00000466  00000-0  29903-3 0  9992
2 30062  98.7796 263.6095 0048597 353.3497  67.5177 14.07432725  7800

Acompanhe FENGYUN 1C DEB em tempo real com AllMySat

Download on the App Store